| time (UTC) | temp F | wind direction | speed knots | gust knots | rain 1hr in | rain 24hr in | rain mn in | humidity % | barometer mb |
| 20260506012524 | 85 | 285 | 0.0 | 5.2 | 0.00 | 0.00 | 0.00 | 70 | 1015.4 |
| 20260506011523 | 84 | 149 | 0.9 | 4.3 | 0.00 | 0.00 | 0.00 | 70 | 1015.4 |
| 20260506005521 | 82 | 71 | 0.9 | 2.6 | 0.00 | 0.00 | 0.00 | 70 | 1015.7 |
| 20260506004520 | 83 | 66 | 1.7 | 4.3 | 0.00 | 0.00 | 0.00 | 70 | 1015.8 |
| 20260506003519 | 83 | 233 | 0.9 | 2.6 | 0.00 | 0.00 | 0.00 | 70 | 1016.1 |
| 20260505235515 | 80 | 84 | 0.9 | 6.1 | 0.00 | 0.00 | 0.00 | 70 | 1016.4 |
| 20260505234252 | 79 | 100 | 0.9 | 4.3 | 0.00 | 0.00 | 0.00 | 70 | 1016.4 |
| 20260505232251 | 79 | 268 | 0.9 | 2.6 | 0.00 | 0.00 | 0.00 | 70 | 1016.4 |
| 20260505231250 | 78 | 74 | 0.0 | 3.5 | 0.00 | 0.00 | 0.00 | 70 | 1016.5 |
| 20260505230418 | 78 | 136 | 4.3 | 4.3 | 0.00 | 0.00 | 0.00 | 70 | 1016.5 |
| 20260505225933 | 78 | 180 | 0.0 | 4.3 | 0.00 | 0.00 | 0.00 | 70 | 1016.5 |
| 20260505225632 | 77 | 77 | 4.3 | 4.3 | 0.00 | 0.00 | 0.00 | 70 | 1016.5 |
| 20260505224803 | 77 | 221 | 0.0 | 6.1 | 0.00 | 0.00 | 0.00 | 70 | 1016.6 |
| 20260505224401 | 77 | 55 | 4.3 | 4.3 | 0.00 | 0.00 | 0.00 | 70 | 1016.6 |
| 20260505223753 | 76 | 66 | 0.0 | 2.6 | 0.00 | 0.00 | 0.00 | 70 | 1016.6 |
| 20260505222752 | 75 | 177 | 0.9 | 3.5 | 0.00 | 0.00 | 0.00 | 70 | 1016.6 |
| 20260505221751 | 74 | 197 | 1.7 | 2.6 | 0.00 | 0.00 | 0.00 | 70 | 1016.6 |
| 20260505220750 | 74 | 101 | 0.9 | 1.7 | 0.00 | 0.00 | 0.00 | 70 | 1016.6 |
| 20260505215749 | 73 | 151 | 0.9 | 3.5 | 0.00 | 0.00 | 0.00 | 70 | 1016.6 |
| 20260505214748 | 72 | 180 | 0.0 | 1.7 | 0.00 | 0.00 | 0.00 | 70 | 1016.6 |
| 20260505213747 | 72 | 136 | 0.9 | 0.9 | 0.00 | 0.00 | 0.00 | 70 | 1016.5 |
| 20260505212746 | 72 | 90 | 0.9 | 1.7 | 0.00 | 0.00 | 0.00 | 70 | 1016.4 |
| 20260505211744 | 71 | 76 | 1.7 | 1.7 | 0.00 | 0.00 | 0.00 | 70 | 1016.3 |
| 20260505210743 | 71 | 105 | 0.0 | 1.7 | 0.00 | 0.00 | 0.00 | 70 | 1016.2 |
| 20260505205742 | 71 | 220 | 0.0 | 1.7 | 0.00 | 0.00 | 0.00 | 70 | 1016.0 |
| 20260505203740 | 71 | 90 | 0.0 | 0.9 | 0.00 | 0.00 | 0.00 | 70 | 1015.8 |
| 20260505202739 | 71 | 131 | 0.0 | 1.7 | 0.00 | 0.00 | 0.00 | 70 | 1015.8 |
| 20260505201738 | 71 | 95 | 1.7 | 1.7 | 0.00 | 0.00 | 0.00 | 70 | 1015.7 |
| 20260505200737 | 71 | 124 | 0.0 | 1.7 | 0.00 | 0.00 | 0.00 | 70 | 1015.6 |
| 20260505195736 | 71 | 86 | 0.0 | 2.6 | 0.00 | 0.00 | 0.00 | 70 | 1015.6 |
| 20260505194735 | 71 | 288 | 0.0 | 1.7 | 0.00 | 0.00 | 0.00 | 70 | 1015.5 |
| 20260505193734 | 71 | 92 | 0.0 | 0.9 | 0.00 | 0.00 | 0.00 | 70 | 1015.4 |
| 20260505192733 | 71 | 125 | 0.0 | 0.9 | 0.00 | 0.00 | 0.00 | 70 | 1015.3 |
| 20260505191732 | 71 | 125 | 0.0 | 0.0 | 0.00 | 0.00 | 0.00 | 70 | 1015.3 |
| 20260505190731 | 71 | 135 | 0.0 | 1.7 | 0.00 | 0.00 | 0.00 | 70 | 1015.3 |
| 20260505185730 | 70 | 333 | 0.0 | 1.7 | 0.00 | 0.00 | 0.00 | 70 | 1015.1 |
| 20260505184728 | 70 | 77 | 0.0 | 0.0 | 0.00 | 0.00 | 0.00 | 70 | 1015.2 |
| 20260505183727 | 70 | 45 | 0.0 | 0.9 | 0.00 | 0.00 | 0.00 | 70 | 1015.1 |
| 20260505182726 | 70 | 150 | 0.0 | 1.7 | 0.00 | 0.00 | 0.00 | 70 | 1015.1 |
| 20260505181725 | 70 | 85 | 0.9 | 0.9 | 0.00 | 0.00 | 0.00 | 70 | 1015.2 |
| 20260505180724 | 71 | 110 | 0.0 | 0.0 | 0.00 | 0.00 | 0.00 | 70 | 1015.3 |
| 20260505175723 | 70 | 226 | 0.0 | 1.7 | 0.00 | 0.00 | 0.00 | 70 | 1015.3 |
| 20260505174722 | 70 | 45 | 0.0 | 1.7 | 0.00 | 0.00 | 0.00 | 70 | 1015.3 |
| 20260505173721 | 69 | 45 | 0.0 | 0.0 | 0.00 | 0.00 | 0.00 | 70 | 1015.4 |
| 20260505171719 | 69 | 45 | 0.0 | 0.0 | 0.00 | 0.00 | 0.00 | 70 | 1015.4 |
| 20260505170718 | 69 | 90 | 0.0 | 0.0 | 0.00 | 0.00 | 0.00 | 70 | 1015.2 |
| 20260505165717 | 69 | 313 | 0.0 | 0.0 | 0.00 | 0.00 | 0.00 | 70 | 1015.1 |
| 20260505164716 | 69 | 135 | 0.0 | 0.9 | 0.00 | 0.00 | 0.00 | 70 | 1015.2 |
| 20260505163715 | 70 | 90 | 0.0 | 0.0 | 0.00 | 0.00 | 0.00 | 70 | 1015.4 |
| 20260505162714 | 70 | 135 | 0.0 | 0.0 | 0.00 | 0.00 | 0.00 | 70 | 1015.6 |
| 20260505161713 | 70 | 58 | 0.0 | 0.0 | 0.00 | 0.00 | 0.00 | 70 | 1015.8 |
| 20260505160711 | 70 | 45 | 0.0 | 0.0 | 0.00 | 0.00 | 0.00 | 70 | 1015.9 |
| 20260505152707 | 71 | 64 | 0.0 | 0.0 | 0.00 | 0.00 | 0.00 | 70 | 1016.1 |
| 20260505151706 | 71 | 135 | 0.0 | 0.9 | 0.00 | 0.00 | 0.00 | 70 | 1016.1 |
| 20260505150705 | 71 | 90 | 0.0 | 0.0 | 0.00 | 0.00 | 0.00 | 70 | 1016.2 |
| 20260505124650 | 73 | 45 | 0.0 | 0.9 | 0.00 | 0.00 | 0.00 | 70 | 1016.4 |
| 20260505123649 | 73 | 135 | 0.0 | 1.7 | 0.00 | 0.00 | 0.00 | 70 | 1016.4 |
| 20260505122648 | 74 | 116 | 0.0 | 0.0 | 0.00 | 0.00 | 0.00 | 70 | 1016.4 |
| 20260505121647 | 74 | 306 | 0.0 | 1.7 | 0.00 | 0.00 | 0.00 | 70 | 1016.7 |
| 20260505120646 | 73 | 77 | 0.0 | 1.7 | 0.00 | 0.00 | 0.00 | 70 | 1016.7 |
| 20260505115645 | 73 | 63 | 1.7 | 2.6 | 0.00 | 0.00 | 0.00 | 70 | 1016.4 |
| 20260505114644 | 74 | 90 | 0.0 | 0.0 | 0.00 | 0.00 | 0.00 | 70 | 1016.7 |
| 20260505113643 | 74 | 132 | 0.0 | 1.7 | 0.00 | 0.00 | 0.00 | 70 | 1016.8 |
| 20260505112642 | 74 | 315 | 0.0 | 0.0 | 0.00 | 0.00 | 0.00 | 70 | 1016.7 |
| 20260505111641 | 74 | 90 | 0.0 | 0.0 | 0.00 | 0.00 | 0.00 | 70 | 1016.4 |
| 20260505110640 | 74 | 154 | 0.0 | 0.0 | 0.00 | 0.00 | 0.00 | 70 | 1016.4 |
| 20260505101634 | 75 | 157 | 0.0 | 2.6 | 0.00 | 0.00 | 0.00 | 70 | 1016.2 |
| 20260505100633 | 75 | 138 | 0.0 | 2.6 | 0.00 | 0.00 | 0.00 | 70 | 1016.1 |
| 20260505095632 | 75 | 51 | 0.9 | 3.5 | 0.00 | 0.00 | 0.00 | 70 | 1016.1 |
| 20260505094631 | 76 | 55 | 2.6 | 3.5 | 0.00 | 0.00 | 0.00 | 70 | 1016.1 |
| 20260505093630 | 76 | 96 | 0.9 | 3.5 | 0.00 | 0.00 | 0.00 | 70 | 1015.7 |
| 20260505092629 | 76 | 34 | 0.0 | 1.7 | 0.00 | 0.00 | 0.00 | 70 | 1015.7 |
| 20260505091628 | 76 | 87 | 1.7 | 3.5 | 0.00 | 0.00 | 0.00 | 70 | 1015.6 |
| 20260505090627 | 76 | 64 | 0.9 | 2.6 | 0.00 | 0.00 | 0.00 | 70 | 1015.3 |
| 20260505085626 | 76 | 20 | 3.5 | 3.5 | 0.00 | 0.00 | 0.00 | 70 | 1015.3 |
| 20260505084625 | 76 | 70 | 1.7 | 3.5 | 0.00 | 0.00 | 0.00 | 70 | 1015.5 |
| 20260505082623 | 76 | 45 | 0.0 | 2.6 | 0.00 | 0.00 | 0.00 | 70 | 1015.0 |
| 20260505081622 | 76 | 75 | 0.0 | 1.7 | 0.00 | 0.00 | 0.00 | 70 | 1015.0 |
| 20260505080620 | 77 | 65 | 0.9 | 1.7 | 0.00 | 0.00 | 0.00 | 70 | 1014.8 |
| 20260505075619 | 77 | 46 | 0.0 | 1.7 | 0.00 | 0.00 | 0.00 | 70 | 1014.7 |
| 20260505074618 | 77 | 75 | 1.7 | 1.7 | 0.00 | 0.00 | 0.00 | 70 | 1014.7 |
| 20260505073617 | 78 | 45 | 0.0 | 0.9 | 0.00 | 0.00 | 0.00 | 70 | 1014.7 |
| 20260505072616 | 78 | 79 | 0.0 | 0.0 | 0.00 | 0.00 | 0.00 | 70 | 1014.8 |
| 20260505071615 | 78 | 101 | 0.0 | 0.9 | 0.00 | 0.00 | 0.00 | 70 | 1014.8 |
| 20260505070614 | 78 | 45 | 0.0 | 3.5 | 0.00 | 0.00 | 0.00 | 70 | 1014.6 |
| 20260505065614 | 79 | 51 | 0.0 | 2.6 | 0.00 | 0.00 | 0.00 | 70 | 1014.5 |
| 20260505064612 | 79 | 49 | 1.7 | 2.6 | 0.00 | 0.00 | 0.00 | 70 | 1014.3 |
| 20260505063611 | 79 | 21 | 1.7 | 2.6 | 0.00 | 0.00 | 0.00 | 70 | 1014.1 |
| 20260505062610 | 79 | 56 | 2.6 | 3.5 | 0.00 | 0.00 | 0.00 | 70 | 1013.9 |
| 20260505061609 | 80 | 54 | 1.7 | 3.5 | 0.00 | 0.00 | 0.00 | 70 | 1013.8 |
| 20260505060608 | 81 | 29 | 2.6 | 3.5 | 0.00 | 0.00 | 0.00 | 70 | 1013.7 |
| 20260505055607 | 81 | 47 | 1.7 | 3.5 | 0.00 | 0.00 | 0.00 | 70 | 1013.7 |
| 20260505054606 | 81 | 71 | 0.0 | 4.3 | 0.00 | 0.00 | 0.00 | 70 | 1013.7 |
| 20260505053605 | 82 | 25 | 2.6 | 3.5 | 0.00 | 0.00 | 0.00 | 70 | 1013.6 |
| 20260505052603 | 82 | 53 | 0.9 | 5.2 | 0.00 | 0.00 | 0.00 | 70 | 1013.7 |
| 20260505052222 | 82 | 36 | 5.2 | 5.2 | 0.00 | 0.00 | 0.00 | 70 | 1013.5 |
| 20260505051400 | 83 | 62 | 0.9 | 4.3 | 0.00 | 0.00 | 0.00 | 70 | 1013.6 |
| 20260505050359 | 84 | 56 | 1.7 | 3.5 | 0.00 | 0.00 | 0.00 | 70 | 1013.7 |
| 20260505041354 | 85 | 74 | 0.0 | 1.7 | 0.00 | 0.00 | 0.00 | 70 | 1013.8 |
| 20260505040353 | 85 | 46 | 0.0 | 1.7 | 0.00 | 0.00 | 0.00 | 70 | 1013.8 |
| 20260505035352 | 86 | 171 | 0.0 | 1.7 | 0.00 | 0.00 | 0.00 | 70 | 1013.8 |
| 20260505034351 | 86 | 133 | 1.7 | 2.6 | 0.00 | 0.00 | 0.00 | 70 | 1014.0 |
| 20260505033350 | 86 | 131 | 0.0 | 1.7 | 0.00 | 0.00 | 0.00 | 70 | 1013.7 |
| 20260505032348 | 87 | 184 | 0.0 | 1.7 | 0.00 | 0.00 | 0.00 | 70 | 1013.9 |
| 20260505031348 | 87 | 275 | 0.0 | 3.5 | 0.00 | 0.00 | 0.00 | 70 | 1014.0 |
| 20260505025345 | 86 | 243 | 1.7 | 3.5 | 0.00 | 0.00 | 0.00 | 70 | 1014.3 |
| 20260505023344 | 84 | 349 | 0.0 | 4.3 | 0.00 | 0.00 | 0.00 | 70 | 1014.4 |
| 20260505023037 | 84 | 136 | 4.3 | 4.3 | 0.00 | 0.00 | 0.00 | 70 | 1014.5 |
| 20260505022457 | 84 | 115 | 0.0 | 3.5 | 0.00 | 0.00 | 0.00 | 70 | 1014.6 |
| 20260505020455 | 83 | 175 | 1.7 | 1.7 | 0.00 | 0.00 | 0.00 | 70 | 1014.8 |
| 20260505015454 | 83 | 65 | 0.0 | 3.5 | 0.00 | 0.00 | 0.00 | 70 | 1015.3 |
| 20260505014453 | 83 | 99 | 0.9 | 3.5 | 0.00 | 0.00 | 0.00 | 70 | 1015.4 |